Location: Palomar Mountain Lodge
(33.3110°N, 116.8495°W)
Time: 17:18:51
(UTC-08:00)

Hubble Space Telescope - Pass Details

Date: 13 December 2025
Orbit: 479 x 481 km, 28.5° (Epoch: 17 January)

Event Time Altitude Azimuth Distance (km) Brightness Sun altitude
Rises 18:43:12 0° 263° (W) 2,524 5.6 -24.8°
Reaches altitude 10° 18:45:31 10° 254° (WSW) 1,645 4.3 -25.3°
Enters shadow 18:48:17 31° 212° (SSW) 848 2.1 -25.8°
